User: anonymous   Login
Location: Unspecified
(43.4680°N, 87.1740°E)
Time: 15:52:29
(UTC+00:00)
Language:

SL-14 DEB - Orbit

View from above orbital plane
View from above orbital plane
View from above satellite
View from above satellite

Ground track
Ground track

The orbit data is extracted from the following two-line orbital elements,

1 35525U 87068CU  22333.15341616  .00000141  00000-0  11591-3 0  9995
2 35525  82.5455 265.4510 0019142 275.0024 149.4822 13.82833045985189
Epoch (UTC): 29 November 2022 03:40:55
Eccentricity: 0.0019142
inclination: 82.5455°
perigee height: 940 km
apogee height: 968 km
right ascension of ascending node: 265.4510°
argument of perigee: 275.0024°
revolutions per day: 13.82833045
mean anomaly at epoch: 149.4822°
orbit number at epoch: 98518

The dashed part of the orbit path shows where the satellite is in the earth's shadow,  

DLR